Regional Weather Roundup
Issued by NWS Boston, MA

Current Version | Previous Version | Text Only | Print | Product List | Glossary Off
Versions: 1 2 3 4 5 6 7 8 9 10 11 12 13 14 15 16 17 18 19 20 21 22 23 24 25 26 27
000 ASUS41 KBOX 231910 RWRBOX REGIONAL WEATHER ROUNDUP NATIONAL WEATHER SERVICE TAUNTON MA 300 PM EDT SUN APR 23 2017 NOTE: "FAIR" INDICATES FEW OR NO CLOUDS BELOW 12,000 FEET WITH NO SIGNIFICANT WEATHER AND/OR OBSTRUCTIONS TO VISIBILITY. MAZALL-232000- EASTERN MASSACHUSETTS CITY SKY/WX TMP DP RH WIND PRES REMARKS BOSTON MOSUNNY 53 38 56 E16 30.05F BEVERLY SUNNY 55 39 54 SE14 30.05F LAWRENCE SUNNY 65 36 34 CALM 30.05F BEDFORD SUNNY 63 35 35 SW8 30.03F BLUE HILL N/A 63 36 36 SW8 30.03F NORWOOD SUNNY 65 36 34 VRB3 30.04F MARSHFIELD SUNNY 54 37 54 SE7 30.07F PLYMOUTH SUNNY 58 38 47 E9G16 30.07F TAUNTON SUNNY 64 39 39 S8 30.05F NEW BEDFORD SUNNY 58 42 55 SE16 30.07F $$ MAZALL-232000- CAPE COD AND THE ISLANDS CITY SKY/WX TMP DP RH WIND PRES REMARKS FALMOUTH CLOUDY 57 39 51 MISG 30.08F HYANNIS MOSUNNY 53 42 66 S8 30.07F CHATHAM SUNNY 53 39 59 E9 30.10S PROVINCETOWN SUNNY 52 39 61 NE8 30.09F NANTUCKET MOSUNNY 50 40 68 S14 30.10S MARTHAS VNYRD MOSUNNY 55 41 59 MISG 30.09F $$ MAZALL-232000- CENTRAL AND WESTERN MASSACHUSETTS CITY SKY/WX TMP DP RH WIND PRES REMARKS WORCESTER SUNNY 62 30 29 CALM 30.04F FITCHBURG SUNNY 67 36 31 VRB5 30.02F ORANGE SUNNY 66 25 21 VRB5 30.02F SPRINGFIELD SUNNY 66 29 25 SW5 30.03F WESTFIELD SUNNY 67 34 29 VRB7 30.03F NORTH ADAMS SUNNY 64 31 28 VRB5 30.03F PITTSFIELD SUNNY 63 29 27 SW10 30.03F $$ RIZALL-232000- RHODE ISLAND CITY SKY/WX TMP DP RH WIND PRES REMARKS PROVIDENCE CLOUDY 60 42 51 SE14 30.07F NEWPORT CLOUDY 53 42 66 S13 30.08F BLOCK ISLAND CLOUDY 52 40 63 S12 30.11F SMITHFIELD SUNNY 63 35 35 SE6 30.05F WESTERLY CLOUDY 53 40 61 S13 30.10F $$ CTZALL-232000- CONNECTICUT CITY SKY/WX TMP DP RH WIND PRES REMARKS BRADLEY INTL MOSUNNY 67 32 27 CALM 30.04F HARTFORD SUNNY 65 36 34 VRB5 30.04F BRIDGEPORT CLOUDY 60 36 40 SW10 30.08F DANBURY SUNNY 63 35 35 CALM 30.06F GROTON MOSUNNY 54 41 61 S12 30.08F NEW HAVEN CLOUDY 56 40 55 SW12 30.08F CHESTER FAIR 59 37 44 S10 30.06F MERIDEN CLOUDY 66 33 29 S3 30.05F WILLIMANTIC SUNNY 67 35 30 W8 30.05F OXFORD MOSUNNY 64 36 34 VRB5 30.06F $$ MEZ002-015-021-024-NHZ003-005-008-011-012-014-VTZ005-008-232000- NORTHERN NEW ENGLAND CITY SKY/WX TMP DP RH WIND PRES REMARKS PORTLAND ME SUNNY 54 35 48 S14G23 30.03F BANGOR ME MOSUNNY 54 37 52 SW6 30.00F CONCORD NH SUNNY 66 31 27 VRB3 30.01F MANCHESTER NH MOSUNNY 66 31 27 SE8 30.00F NASHUA NH SUNNY 65 36 34 SE7 30.02F PORTSMOUTH NH MOSUNNY 57 37 47 SE18 30.02F JAFFREY NH SUNNY 64 30 27 MISG 30.03F KEENE NH SUNNY 65 30 27 CALM 30.02F BURLINGTON VT NOT AVBL MT. WASHINGTON MOSUNNY 32 23 69 W18 N/A WCI 20 $$ NYZ052-076-232000- EASTERN NEW YORK CITY SKY/WX TMP DP RH WIND PRES REMARKS ALBANY MOSUNNY 66 34 30 SE7 30.05F NEW YORK CITY MOSUNNY 64 34 32 S9 30.07F $$ ANZALL-232000- MARINE OBSERVATIONS STATION/POSITION TIME TEMP WIND PRES VSBY WAVE AIR SEA DIR/SP/G HT/PER (UTC) (F) (DEG/KT/KT) (MB) (MI) (FT/S) BOSTON BUOY 1750 48 48 120/ 8/ 10 1018.2 4/10 BUZZARDS BAY 1800 48 210/ 9/ 9 1020.1R NANTUCKET SOUND 1850 47 1019.3S 1/ 5 MASS BAY-STELLWA 1804 47 46 150/ 8/ 10 1018.1F 5/12 ISLE OF SHOALS 1800 46 150/ 17/ 19 1017.6F S OF BLOCK IS 1855 50 N/A 3/11 $$ ......................KEY......................... SKY/WX - SKY CONDITION/PRESENT WEATHER TMP - TEMPERATURE IN FAHRENHEIT DWPT - DEWPOINT IN FAHRENHEIT RH - RELATIVE HUMIDITY IN PERCENT WIND - DIRECTION AND SPEED IN MPH PRES - MEAN SEA LEVEL PRESSURE IN INCHES OF HG WCI - WIND CHILL INDEX VSB - VISIBILITY IN MILES HX - HEAT INDEX TC - TEMPERATURE IN CELSIUS VRB - VARIABLE WIND DIRECTION N/A - NOT AVAILABLE

USA.gov is the U.S. government's official web portal to all federal, state and local government web resources and services.